Regional Weather Roundup
Issued by NWS Wakefield, VA

Home | Current Version | Previous Version | Graphics & Text | Print | Product List | Glossary On
Versions: 1 2 3 4 5 6 7 8 9 10 11 12 13 14 15 16 17 18 19 20 21 22 23 24 25 26 27 28 29 30 31 32 33 34 35 36 37 38 39 40 41 42 43 44 45 46 47 48 49 50
000
ASUS41 KAKQ 191315
RWRAKQ

REGIONAL WEATHER ROUNDUP
NATIONAL WEATHER SERVICE WAKEFIELD VA
900 AM EDT SAT AUG 19 2017

Note: "fair" indicates few or no clouds below 12,000 feet with no
significant weather and/or obstructions to visibility. * = Denotes
station may not report precipitation (e.g., rain,snow,etc.),
thunder or fog.

VAZ042-051-052>054-056-191400-
NORTHERN VIRGINIA

CITY           SKY/WX    TMP DP  RH WIND       PRES   REMARKS
WASH NATIONAL  MOSUNNY   80  67  64 NW7       29.91R
DULLES         MOSUNNY   79  68  69 NW9       29.91R
FORT BELVOIR   SUNNY     80  67  65 NW3       29.91R
QUANTICO       MOSUNNY   81  70  69 NE3       29.92R
FREDERICKSBRG* MOSUNNY   80  68  68 N6        29.90S
STAFFORD*      PTSUNNY   79  71  78 NW3       29.95S
WARRENTON      MOSUNNY   79  67  66 CALM      29.92R
CULPEPER*      MOSUNNY   79  71  78 CALM      29.93S
MANASSAS*      MOSUNNY   80  68  66 NW6       29.92R
LEESBURG*      SUNNY     79  70  73 N5        29.93R
WINCHESTER     SUNNY     73  66  78 SW3       29.94R
FRONT ROYAL*   SUNNY     73  70  88 SW5       29.93S
LURAY*         SUNNY     72  70  94 CALM      29.96S
$$

VAZ048-049-060>072-079>083-191400-
CENTRAL AND SOUTH CENTRAL VIRGINIA

CITY           SKY/WX    TMP DP  RH WIND       PRES   REMARKS
RICHMOND       MOSUNNY   81  75  82 CALM      29.92R
CHESTERFIELD*  PTSUNNY   78  75  90 E3        29.93R
PETERSBURG*    CLOUDY    75  75  99 CALM      29.93R
HANOVER        PTSUNNY   79  72  79 CALM      29.93R
TAPPAHANNOCK*  MOSUNNY   80  73  80 CALM      29.92S
QUINTON*       CLOUDY    77  77 100 CALM      29.91R
CHARLOTTSVILLE SUNNY     79  69  71 CALM      29.94R
GORDONSVILLE*  SUNNY     79  71  75 CALM      29.92S
ORANGE*        MOSUNNY   77  70  78 CALM      29.93R
LOUISA*        MOSUNNY   79  72  78 CALM      29.93R
BUMPASS*       CLOUDY    76  76 100 CALM      29.93R
FARMVILLE*     MOSUNNY   79  66  64 CALM      29.93S
CREWE*         FAIR      77  73  86 NW6       29.94R
FORT PICKETT*  FAIR     N/A N/A N/A NW5       29.94R
CHASE CITY*    PTSUNNY   76  74  92 W6        29.96R
CLARKSVILLE*   PTSUNNY   77  72  83 W5        29.95R
SOUTH HILL*    SUNNY     77  73  87 NW3       30.00R
LAWRENCEVILLE* FAIR      77  73  86 NW3       29.94R
EMPORIA*         N/A     77  73  88 W6        29.94R
$$

VAZ088>098-191400-
SOUTHEAST VIRGINIA

CITY           SKY/WX    TMP DP  RH WIND       PRES   REMARKS
NORFOLK        PTSUNNY   80  76  87 W6        29.91R
VIRGINIA BEACH MOSUNNY   80  74  81 NW7       29.90R
NORFOLK NAVAL  PTSUNNY   80  75  84 SW6       29.93R
WEST POINT*    PTSUNNY   78  75  91 CALM      29.93R
SALUDA*        CLOUDY    78  77  97 W3        29.91R
NEWPORT NEWS   CLOUDY    78  74  87 W5        29.92R
LANGLEY AFB    PTSUNNY   78  77  95 W6        29.91R
FORT EUSTIS    PTSUNNY   79  75  87 CALM      29.90R
WILLIAMSBURG*  SUNNY     79  79 100 CALM      29.93R
HR EXEC AP*    FAIR      79  75  89 NW3       29.90R
FRANKLIN*      MOSUNNY   79  75  87 CALM      29.93R
US460-WAKEFLD  CLOUDY    77  75  93 CALM      29.93R FOG
$$

VAZ020-022-025-037-045-191400-
WEST CENTRAL AND SOUTHWEST VIRGINIA

CITY           SKY/WX    TMP DP  RH WIND       PRES   REMARKS
STAUNTON*      SUNNY     72  65  81 CALM      30.00R
WAYNESBORO*    SUNNY     74  66  76 W3        29.99S
HOT SPRINGS VA MOSUNNY   64  63  94 CALM      30.11R
LYNCHBURG      SUNNY     77  66  68 W5        29.98R
DANVILLE       SUNNY     78  69  73 W5        29.97R
SOUTH BOSTON*  FAIR      77  71  80 NW3       29.96R
MARTINSVILLE   SUNNY     75  67  76 NW3       30.02R
ROANOKE        MOSUNNY   74  66  76 W9        30.01S
BLACKSBURG     SUNNY     69  65  88 CALM      30.08S
DUBLIN*        SUNNY     73  65  77 W5        30.07S
MARION*        CLOUDY    66  57  73 W5        30.12R HAZE
HILLSVILLE*    SUNNY     67  60  78 CALM      30.08S
RICHLANDS*     HAZE      63  58  84 CALM      30.12R VSB<1/4
WISE*          SUNNY     64  64 100 SW3       30.12R
ABINGDON*      FOG       67  67 100 W5        30.09R VSB 1/4
$$

MDZ021>025-VAZ099-100-191400-
SOUTHERN MARYLAND AND THE DELMARVA PENINSULA

CITY           SKY/WX    TMP DP  RH WIND       PRES   REMARKS
PATUXENT RIVER PTSUNNY   78  72  81 NW8       29.90R
BAY BRIDGE APT MOSUNNY   79  70  73 NW7       29.89R
LEONARDTOWN    PTSUNNY   75  70  83 CALM      29.92S
DOVER          MOSUNNY   79  70  73 NW8       29.87R
GEORGETOWN     CLOUDY    79  73  82 NW3       29.90R
EASTON         NOT AVBL
CAMBRIDGE      MOSUNNY   81  72  74 NW6       29.90R
SALISBURY      CLOUDY    78  76  93 W6        29.89R
OCEAN CITY     CLOUDY    77  75  93 NW3       29.90R
WALLOPS ISLAND CLOUDY    79  77  94 NW6       29.89R
ACCOMACK*      CLOUDY    79  76  91 CALM      29.90R
$$

NCZ012>017-030>032-191400-
NORTH CENTRAL AND EASTERN NORTH CAROLINA

CITY           SKY/WX    TMP DP  RH WIND       PRES   REMARKS
ROANOKE RAPIDS FAIR      79  73  83 W3        29.93R
RALEIGH        MOSUNNY   80  73  79 NW5       29.96R
ELIZABETH CITY MOSUNNY   82  79  90 W7        29.92R
AHOSKIE*         N/A     77  74  91 CALM      29.92R
EDENTON*       MOSUNNY   83  77  82 CALM      29.92S
CURRITUCK*     PTSUNNY   82  76  84 SW5       29.92R
KILL DEVIL HLS PTSUNNY   81  76  85 W6        29.90R
MANTEO         CLOUDY    81  77  88 W5        29.92R
CAPE HATTERAS  MOSUNNY   84  80  88 SW9       29.93S HX  97
TARBORO*       NOT AVBL
GOLDSBORO      MOSUNNY   81  79  94 W7        29.93R
WASHINGTON     PTSUNNY   81  77  86 W6        29.93S
GREENVILLE     SUNNY     82  73  74 W5        29.95R
NEW BERN       CLOUDY    82  79  90 W9        29.95R
WILMINGTON     SUNNY     86  78  77 SW12      29.93S HX  98
$$

VAZ048-191400-
ELSEWHERE

CITY           SKY/WX    TMP DP  RH WIND       PRES   REMARKS
HARRISBURG PA  MOSUNNY   75  68  78 NW8       29.88S
BALTIMORE      MOSUNNY   77  70  79 NW5       29.89R
ANNAPOLIS      PTSUNNY   79  73  82 NW6       29.90R
ANDREWS AFB    SUNNY     78  66  65 NW7       29.90R
PHILADELPHIA   MOSUNNY   79  68  69 NW10      29.87R
HENDERSON NC   SUNNY     74  66  75 NW6       29.96R
GREENSBORO     MOSUNNY   79  68  69 N6        29.98S
ROCKY MOUNT    SUNNY     80  74  81 NW8       29.93S
$$

VAZ100-191400-
MARINE

STATION/POSITION TIME  TEMP    WIND        PRES    WAVE   SWELL
                       AIR SEA DIR/SP/G            HT/PER HT/PER
                 (UTC) (F)     (DEG/KT/KT) (MB)    (FT/S) (FT/S)
BRANDYWINE LGT   1242   76     310/  7/  8 1012.0R
CAPE MAY NJ      1248   77 78  300/  6/  7 1011.2R
LEWES DE         1242   77 77  310/  8/  9 1011.5R
15NM E FENWICK I 1250   77 77  260/  8/ 10 1012.2R   3/ 6   3/ 6
OCEAN-CITY-INLET 1242   77 75  320/  6/  8 1012.4R
WACHAPREAGUE VA  1242   78 82  270/  3/  4 1012.3R
THOMAS POINT MD  1300   76 80  320/  7/  8   N/A
GOOSES REEF MD   1300   79 80  320/ 10/ 12 1013.4    1/ 2
COVE POINT MD    1242   78     330/  8/ 11 1013.3R
SOLOMONS ISLAND  1242   78 81  330/  5/ 10   N/A
BISHOPS HEAD MD  1242   80 81  310/  6/ 10 1012.6R
PINEY POINT MD   1242          360/ 10/ 12   N/A
POTOMAC MD       1300   80 82  350/  8/ 12 1011.7
CAMBRIDGE MD     1242   83 81              1013.1R
LEWISETTA VA     1242   78 82   10/  1/  3 1012.3R
RAPPAHANNOCK LGT 1242          310/  9/ 11 1013.0R
STINGRAY PT      1300   80 81  340/  8/ 10 1013.2    1
YORK RVR RNG VA  1242   78     290/  6/  8 1013.1R
YORKTOWN VA      1242   78 82  270/  5/  6 1012.5R
JAMESTOWN VA     1300      83  240/  2/  4   N/A     0
DOMINION TERM VA 1242   78     290/  7/  8 1013.0R
KIPTOPEKE VA     1242      80  310/  7/  8   N/A
CHES BAY BRIDGE  1242   78 78  290/  9/ 10 1012.5R
CAPE HENRY VA    1242   78     250/  5/  9   N/A
WILLOUBY STN VA  1242   78     270/  6/  7 1012.9R
S CRANEY ISL VA  1242   79     290/  6/  9 1012.7R
CAPE HENRY BUOY  1300      78                N/A     3/ 6
1ST LANDING BUOY 1300   78 79              1012.7    1/ 4
64NM E OF VA BCH 1250   78 77  250/  4/  4 1013.0R   4/ 6   3/ 6
DUCK PIER NC     1242   81 69  250/  9/ 12 1012.5R
44100 DUCK FRF   1205      79                N/A     2/ 8
44056 DUCK FRF   1300      76                N/A     2/ 9
OREGON INLET NC  1242   82 83  230/ 12/ 13 1012.8R
HATTERAS NC      1242   82 83  230/  7/ 11 1013.5R
DIAMOND SHLS NC  1250   84 84  240/ 16/ 19 1013.3R   5/ 6   2/10
CAPE LOOKOUT NC  1300   85     240/ 12/ 15 1013.6R
$$



USA.gov is the U.S. government's official web portal to all federal, state and local government web resources and services.